This demonstration page uses our WeatherBlox Daily Observations layout. Learn more.

Left ArrowRight Arrow

38.89511, -77.03637

Hourly Observations for September 7, 2018

Temp ( °F °C ) Dew Point ( °F °C ) Humidity (%) Winds ( mph kmh ) Pressure ( in mb ) Visibility ( mi km ) Precip ( " mm )
12:52 am 00:52 Clear 81 27.2 71 21.7 72 72 N 8 13 30.13 1020 10 16 N/A
1:52 am 01:52 Clear 79 26.1 70 21.1 74 74 N 8 13 30.12 1020 10 16 N/A
2:52 am 02:52 Clear 79 26.1 69 20.6 72 72 NNE 7 11 30.11 1020 10 16 N/A
3:52 am 03:52 Clear 78 25.6 69 20.6 74 74 N 6 9 30.11 1020 10 16 N/A
4:52 am 04:52 Clear 77 25 69 20.6 77 77 NNW 8 13 30.12 1020 10 16 N/A
5:52 am 05:52 Mostly Clear 76 24.4 69 20.6 79 79 N 7 11 30.13 1020 10 16 N/A
6:52 am 06:52 Mostly Cloudy 77 25 69 20.6 77 77 NNE 7 11 30.13 1020 10 16 N/A
7:52 am 07:52 Mostly Cloudy 78 25.6 69 20.6 74 74 NNE 8 13 30.14 1021 10 16 N/A
8:52 am 08:52 Mostly Cloudy 80 26.7 70 21.1 71 71 N 6 9 30.13 1020 10 16 N/A
9:52 am 09:52 Cloudy 81 27.2 70 21.1 69 69 ENE 3 6 30.14 1021 10 16 N/A
10:52 am 10:52 Cloudy 84 28.9 70 21.1 63 63 N N/A 30.13 1020 10 16 N/A
11:52 am 11:52 Cloudy 87 30.6 71 21.7 59 59 N N/A 30.12 1020 10 16 N/A
12:52 pm 12:52 Cloudy 88 31.1 70 21.1 55 55 E 3 6 30.11 1020 10 16 N/A
1:52 pm 13:52 Cloudy 90 32.2 70 21.1 52 52 ENE 3 6 30.09 1019 10 16 N/A
2:52 pm 14:52 Cloudy 90 32.2 71 21.7 54 54 N N/A 30.06 1018 10 16 N/A
3:52 pm 15:52 Cloudy 88 31.1 71 21.7 57 57 SSE 5 7 30.04 1017 10 16 N/A
4:28 pm 16:28 Cloudy with Heavy Rain 86 30 72 22.2 63 63 N 6 9 30.06 1018 7 11 N/A
4:37 pm 16:37 Cloudy with Heavy Rain 83 28.3 74 23.3 74 74 NNW 10 17 30.06 1018 5 8 0.06 1.52
4:52 pm 16:52 Cloudy with Light Rain 82 27.8 74 23.3 77 77 NNE 5 7 30.05 1018 8 13 0.12 3.05
5:13 pm 17:13 Cloudy with Strong Thunderstorms 82 27.8 73 22.8 74 74 W 7 11 30.06 1018 7 11 0.05 1.27
5:29 pm 17:29 Cloudy with Strong Thunderstorms 81 27.2 73 22.8 77 77 NW 3 6 30.03 1017 7 11 0.12 3.05
5:36 pm 17:36 Cloudy with Strong Thunderstorms 80 26.7 74 23.3 82 82 WSW 17 28 30.06 1018 3 4 0.16 4.06
5:43 pm 17:43 Cloudy with Strong Thunderstorms 80 26.7 73 22.8 79 79 W 12 19 30.03 1017 2 2 0.20 5.08
5:52 pm 17:52 Cloudy with Strong Thunderstorms 77 25 70 21.1 79 79 VRB 6 9 30.05 1018 2 3 0.34 8.64
6:04 pm 18:04 Cloudy with Strong Thunderstorms 77 25 72 22.2 85 85 N 9 15 30.06 1018 4 6 0.14 3.56
6:22 pm 18:22 Windy with Storms Likely 77 25 73 22.8 88 88 NE 20 31 30.06 1018 6 10 0.27 6.86
6:37 pm 18:37 Cloudy with Strong Thunderstorms 75 23.9 71 21.7 88 88 NNE 20 31 30.06 1018 2 2 0.31 7.87
6:52 pm 18:52 Cloudy with Strong Thunderstorms 74 23.3 70 21.1 88 88 NE 10 17 30.05 1018 6 10 0.65 16.51
6:57 pm 18:57 Cloudy with Strong Thunderstorms 74 23.3 70 21.1 88 88 ENE 12 19 30.03 1017 2 3 0.05 1.27
6:59 pm 18:59 Cloudy with Strong Thunderstorms 74 23.3 70 21.1 88 88 ENE 12 19 30.06 1018 1 2 0.14 3.56
7:03 pm 19:03 Cloudy with Strong Thunderstorms 73 22.8 70 21.1 90 90 NE 8 13 30.06 1018 1 1 0.34 8.64
7:12 pm 19:12 Cloudy with Strong Thunderstorms 74 23.3 71 21.7 91 91 NE 14 22 30.03 1017 7 11 0.64 16.26
7:37 pm 19:37 Mostly Cloudy with Nearby Thunderstorms 74 23.3 70 21.1 88 88 NE 6 9 30.03 1017 9 14 0.86 21.84
7:52 pm 19:52 Cloudy with Nearby Thunderstorms 75 23.9 71 21.7 88 88 NNE 10 17 30.06 1018 9 14 0.86 21.84
8:06 pm 20:06 Cloudy 75 23.9 69 20.6 82 82 NNW 16 26 30.09 1019 10 16 N/A
8:26 pm 20:26 Cloudy with Thunderstorms 75 23.9 69 20.6 82 82 NNE 15 24 30.09 1019 10 16 N/A
8:41 pm 20:41 Cloudy with Thunderstorms 75 23.9 70 21.1 84 84 N 10 17 30.09 1019 4 6 0.03 0.76
8:52 pm 20:52 Cloudy with Thunderstorms 75 23.9 70 21.1 84 84 NNE 13 20 30.08 1019 3 5 0.07 1.78
9:11 pm 21:11 Cloudy with Strong Thunderstorms 74 23.3 71 21.7 91 91 NW 22 35 30.09 1019 4 6 0.12 3.05
9:29 pm 21:29 Cloudy with Strong Thunderstorms 74 23.3 71 21.7 91 91 W 20 31 30.12 1020 2 3 0.20 5.08
9:52 pm 21:52 Cloudy with Strong Thunderstorms 73 22.8 70 21.1 90 90 NW 3 6 30.08 1019 3 5 0.72 18.29
10:04 pm 22:04 Cloudy with Strong Thunderstorms 75 23.9 71 21.7 88 88 E 9 15 30.09 1019 5 8 0.09 2.29
10:19 pm 22:19 Cloudy with Light Rain 74 23.3 71 21.7 91 91 N N/A 30.09 1019 10 16 0.11 2.79
10:31 pm 22:31 Cloudy with Light Rain 74 23.3 71 21.7 91 91 NE 6 9 30.06 1018 10 16 0.12 3.05
10:52 pm 22:52 Cloudy with Light Rain 75 23.9 71 21.7 88 88 N 6 9 30.06 1018 10 16 0.13 3.30
11:48 pm 23:48 Cloudy 75 24 70 21 83 83 N 3 6 30.09 1019 10 16 N/A
11:52 pm 23:52 Cloudy 75 23.9 70 21.1 84 84 NNW 3 6 30.07 1018 10 16 N/A

Powered by AerisWeather